Regional Weather Roundup
Issued by NWS

Home | Current Version | Previous Version | Text Only | Print | Product List | Glossary Off
Versions: 1 2 3 4 5 6 7 8 9 10 11 12 13 14 15 16 17 18 19 20 21 22 23 24 25 26 27 28 29 30 31 32 33 34 35 36 37 38 39 40 41 42 43 44 45 46 47 48 49 50

000
ASUS43 KFSD 181210
RWRSD

WEATHER ROUNDUP FOR SOUTH DAKOTA
NATIONAL WEATHER SERVICE SIOUX FALLS SD
700 AM CDT WED OCT 18 2017

NOTE: "FAIR" INDICATES FEW OR NO CLOUDS BELOW 12,000 FEET WITH NO
SIGNIFICANT WEATHER AND/OR OBSTRUCTIONS TO VISIBILITY.


SDZ001>005-009-010-012>017-181300-
NORTHWEST AND NORTH CENTRAL SOUTH DAKOTA

CITY           SKY/WX    TMP DP  RH WIND       PRES   REMARKS
BUFFALO          N/A     48  28  46 NW23      29.86R
FAITH            N/A     55  29  36 N26G37    29.86R
MOBRIDGE       CLOUDY    56  35  45 NW15      29.79R
$$

SDZ012>016-024>037-041>051-057-063-072>074-181300-
SOUTHWEST AND SOUTH CENTRAL SOUTH DAKOTA

CITY           SKY/WX    TMP DP  RH WIND       PRES   REMARKS
RAPID CTY ARPT PTCLDY    60  22  23 N16       29.89R
PIERRE         CLOUDY    48  33  56 W14       29.78R
CUSTER         CLOUDY    50  14  23 VRB3      29.98R
ELLSWORTH AFB  CLEAR     62  21  20 N21       29.89R
PHILIP         PTCLDY    47  31  53 W6        29.84R
PINE RIDGE     PTCLDY    47  25  42 W5        29.93R
SPEARFISH      FAIR      55  21  26 NW7G14    29.96R
WINNER         FAIR      53  30  41 SW7       29.78R
$$

SDZ004>011-016>023-039-040-181300-
NORTHEAST SOUTH DAKOTA

CITY           SKY/WX    TMP DP  RH WIND       PRES   REMARKS
ABERDEEN       PTCLDY    41  39  93 S6        29.73R
WATERTOWN      CLOUDY    45  42  89 S8        29.73R
BROOKINGS      CLOUDY    48  42  80 S10       29.75F
SISSETON         N/A     59  40  49 SW21      29.63F
$$

SDZ017-020-022-023-036>040-048>070-181300-
SOUTHEAST SOUTH DAKOTA

CITY           SKY/WX    TMP DP  RH WIND       PRES   REMARKS
SIOUX FALLS    PTCLDY    53  45  74 S10       29.78S
HURON          PTCLDY    42  38  85 CALM      29.74R
CHAMBERLAIN    CLOUDY    43  35  74 W5        29.76R
MITCHELL       PTCLDY    45  41  86 S7        29.75S
YANKTON        CLOUDY    52  43  71 S9        29.80S
$$

ABBREVIATIONS USED IN REMARKS
   TC - TEMPERATURE IN CELSIUS
  WCI - WIND CHILL INDEX
   HX - HEAT INDEX
  VSB - VISIBILITY





USA.gov is the U.S. government's official web portal to all federal, state and local government web resources and services.